TimePDT,TemperatureF,Dew PointF,Humidity,Sea Level PressureIn,VisibilityMPH,Wind Direction,Wind SpeedMPH,Gust SpeedMPH,PrecipitationIn,Events,Conditions,WindDirDegrees,DateUTC
12:53 AM,61.0,48.9,64,30.01,10.0,Calm,Calm,-,N/A,,Clear,0,2013-10-11 07:53:00
1:53 AM,61.0,48.9,64,30.01,10.0,Calm,Calm,-,N/A,,Clear,0,2013-10-11 08:53:00
2:53 AM,60.1,48.9,67,30.01,10.0,Calm,Calm,-,N/A,,Clear,0,2013-10-11 09:53:00
3:53 AM,55.9,48.0,75,30.00,10.0,Calm,Calm,-,N/A,,Clear,0,2013-10-11 10:53:00
4:53 AM,57.0,48.9,74,30.01,10.0,Calm,Calm,-,N/A,,Clear,0,2013-10-11 11:53:00
5:53 AM,57.0,48.0,72,30.01,10.0,ENE,4.6,-,N/A,,Clear,60,2013-10-11 12:53:00
6:53 AM,57.9,48.0,70,30.02,10.0,Variable,3.5,-,N/A,,Partly Cloudy,0,2013-10-11 13:53:00
7:53 AM,60.1,48.9,67,30.03,10.0,NE,4.6,-,N/A,,Partly Cloudy,40,2013-10-11 14:53:00
8:53 AM,64.0,48.9,58,30.05,10.0,NE,4.6,-,N/A,,Partly Cloudy,40,2013-10-11 15:53:00
9:53 AM,64.9,50.0,58,30.05,10.0,Calm,Calm,-,N/A,,Partly Cloudy,0,2013-10-11 16:53:00
10:53 AM,68.0,52.0,56,30.04,10.0,West,6.9,-,N/A,,Partly Cloudy,260,2013-10-11 17:53:00
11:53 AM,68.0,52.0,56,30.04,10.0,West,8.1,-,N/A,,Clear,270,2013-10-11 18:53:00
12:53 PM,68.0,53.1,59,30.01,10.0,West,9.2,-,N/A,,Partly Cloudy,270,2013-10-11 19:53:00
1:53 PM,69.1,52.0,54,29.99,10.0,West,12.7,-,N/A,,Partly Cloudy,260,2013-10-11 20:53:00
2:53 PM,68.0,52.0,56,29.99,10.0,West,13.8,-,N/A,,Clear,260,2013-10-11 21:53:00
3:53 PM,68.0,54.0,61,29.97,10.0,West,16.1,-,N/A,,Clear,260,2013-10-11 22:53:00
4:53 PM,66.0,55.9,70,29.96,10.0,West,17.3,-,N/A,,Clear,270,2013-10-11 23:53:00
5:53 PM,64.9,57.0,75,29.96,10.0,West,15.0,-,N/A,,Partly Cloudy,260,2013-10-12 00:53:00
6:53 PM,64.0,55.9,75,29.95,10.0,West,13.8,-,N/A,,Clear,270,2013-10-12 01:53:00
7:53 PM,63.0,57.0,81,29.96,10.0,West,11.5,-,N/A,,Clear,260,2013-10-12 02:53:00
8:53 PM,64.0,57.0,78,29.96,10.0,West,9.2,-,N/A,,Clear,260,2013-10-12 03:53:00
9:53 PM,64.0,57.0,78,29.96,10.0,West,9.2,-,N/A,,Clear,260,2013-10-12 04:53:00
10:53 PM,63.0,57.0,81,29.96,8.0,Calm,Calm,-,N/A,,Clear,0,2013-10-12 05:53:00
11:53 PM,63.0,57.0,81,29.96,10.0,SE,4.6,-,N/A,,Clear,140,2013-10-12 06:53:00